Regional Weather Roundup
Issued by NWS

Home | Current Version | Previous Version | Text Only | Print | Product List | Glossary On
Versions: 1 2 3 4 5 6 7 8 9 10 11 12 13 14 15 16 17 18 19 20 21 22 23 24 25 26 27
000
ASUS46 KPQR 250210
RWROR

OREGON REGIONAL WEATHER ROUNDUP
NATIONAL WEATHER SERVICE PORTLAND OR
700 PM PDT SAT JUN 24 2017

NOTE: "FAIR" INDICATES FEW OR NO CLOUDS BELOW 12,000 FEET WITH
NO SIGNIFICANT WEATHER AND/OR OBSTRUCTIONS TO VISIBILITY.

ORZ001>013-250300-
NORTHWEST OREGON


CITY           SKY/WX    TMP DP  RH WIND       PRES   REMARKS
ASTORIA        SUNNY     82  58  43 NW8       29.91F
NEWPORT        SUNNY     79  55  44 N3        29.88F
PORTLAND       SUNNY     95  38  13 E15       29.90F HX  90
VANCOUVER WA   SUNNY     96  41  15 E9        29.90F HX  92
SCAPPOOSE      SUNNY     95  51  22 NE6       29.91F HX  92
HILLSBORO      SUNNY     95  46  18 NE6       29.91F HX  91
AURORA         SUNNY     96  46  18 N13       29.89F HX  92
MCMINNVILLE    SUNNY     95  47  19 N9        29.89F HX  91
SALEM          SUNNY     97  46  17 N17       29.86F HX  93
CORVALLIS      SUNNY     97  48  19 N3        29.89S HX  93
EUGENE         SUNNY     93  55  27 N12       29.86F HX  91
$$

ORZ021-028-250300-
SOUTHWEST OREGON


CITY           SKY/WX    TMP DP  RH WIND       PRES   REMARKS
NORTH BEND     SUNNY     63  54  72 W14       29.93S
BROOKINGS      SUNNY     60  53  77 S3        29.96S
ROSEBURG       SUNNY    100  49  17 N12       29.84S HX  97
SEXTON SUMMIT  SUNNY     86  47  25 VRB6      30.07F
GRANTS PASS    FAIR     104  48  15 N12       29.86S HX 100
MEDFORD        SUNNY    105  43  12 W6        29.83F HX 100
$$

ORZ014>016-041-250300-
COLUMBIA GORGE


CITY           SKY/WX    TMP DP  RH WIND       PRES   REMARKS
TROUTDALE      SUNNY     94  42  16 E10       29.90F HX  90
HOOD RIVER     SUNNY     90  41  18 SE5       30.01S
THE DALLES     SUNNY     95  41  15 E10       29.97F HX  91
$$

ORZ029>031-041-044-049-050-061>064-502-503-505>511-250300-
EASTERN OREGON


CITY           SKY/WX    TMP DP  RH WIND       PRES   REMARKS
MADRAS         SUNNY     88  32  13 N10       30.09S
REDMOND        SUNNY     89  26  10 N18       30.09F
BEND           SUNNY    N/A N/A N/A NW10      30.13S
PRINEVILLE     SUNNY     90  32  12 N10       30.10S
KLAMATH FALLS  SUNNY     92  38  15 N10       30.08F
LAKEVIEW       SUNNY     87  39  18 N8        30.15S
HERMISTON      SUNNY     93  37  14 NE7       30.02F
PENDLETON      SUNNY     88  37  16 NE10      30.06F
JOHN DAY       SUNNY     87  32  14 NW6       30.14S
MEACHAM        SUNNY     76  36  23 VRB3      30.20F
LA GRANDE      SUNNY     84  23  10 N6        30.12S
BAKER CITY     SUNNY     79  44  28 NW9       30.15S
BURNS          SUNNY     85  41  21 S6        30.14F
ROME             N/A     91  20   7 NE10      30.12S
ONTARIO        SUNNY     92  34  13 N5        30.05F
$$




USA.gov is the U.S. government's official web portal to all federal, state and local government web resources and services.